Showing default

ICESAT-2, 43613

Orbit data source: Space-Track

ICESAT-2, 43613 is a payload satellite owned by GSFC (US) in LEO that was launched on Sat, 15 Sep 2018 UTC via a DELTA 7420-10C launch vehicle from the Air Force Western Test Range (AFWTR). Payload-class satellites include a variety of spacecraft equipped with specific instruments for various scientific and technological missions. These include communications satellites like Starlink; space stations such as the ISS; scientific satellites like the Hubble; Earth observation satellites from companies like Planet Labs, Umbra, and HawkEye 360; GPS; miniature CubeSats for education and research; and military/defense satellites.

Loading next visibility...
Identifier
43613, 2018-070A
Orbit
LEO
Country
Flag of USUS
Related business
Manufacturer
NGIS SSG Gilbert
Mission
Operational Civil Science
Bus & Motor
LEOSTAR-3, AOCS
Mass
1,580 kg wet, 1,402 kg dry
Launch date (UTC)
2018-09-15 (8 years ago)
Launch vehicle
DELTA 7420-10C
Launch site
Air Force Western Test Range (AFWTR)
Object type
Payload
Rocket body
Debris
Shape & HBR
Box + 1 Pan, 5.5 m
Radar Cross Section
16.786 m², Large (>1 m²)

Expand to show TLE details & history
Last TLE update: 2 days ago

TLE from 2 days ago
0 ICESAT-2
1 43613U 18070A   26171.42893477  .00008058  00000-0  29199-3 0  9998
2 43613  92.0081 291.8551 0006110 100.1552 260.0387 15.28330924432958
Epoch: 2026-06-20T10:17Z
TLE epoch observation values (Epoch: 2026-06-20T10:17:39.964Z)
Latitude
0.00002°
Longitude
-131.20511°
Altitude
484.73 km
Speed
7.622 km/s
True Right ascension
19h 27m 25s
True Declination
0° 00' 00"
Sunlit
Object was in full shadow at epoch
Visualization orbit readout
Latitude
Unknown
Longitude
Unknown
Altitude
Unknown
Speed
Unknown
Apparent Right ascension
Unknown
Apparent Declination
Unknown
Sunlit
N/A
Visualization observer readout
Local Sidereal Time
21:41:37
Azimuth
Unknown
Elevation
Unknown
Doppler factor
Unknown
Orbital elements
Apogee altitude
481.797 km
Perigee altitude
473.419 km
Semi-major axis
6,855.745 km
Eccentricity
0.00061
Inclination
92.0081°
RAAN
291.8551°
Arg. of periapsis
100.1552°
True anomaly
259.96975°
Mean anomaly
260.0387°
Eccentric anomaly
260.00422°
Mean motion
3.8235 °/min
Orbital period
94.15 mins
BSTAR
0.00029199
Loading maneuver chart data...
Computing Atmospheric mass density...
Loading historical data...
Loading historical data...
Loading historical data...
Loading historical data...
Loading historical data...
Loading historical data...
Loading historical data...

Documentation

Showing up to 5 results
|